[[{"header":{"parameterUnit":"m.s-1","parameterCategory":1,"la1":30.2991,"la2":30.254,"lo1":-89.0895,"lo2":-89.0444,"dy":0.0017,"dx":0.0017,"nx":28,"ny":28,"refTime":"2024-12-20T03:00:00:Z","depth":0,"parameterNumber":2,"parameterNumberName":"U-component_of_WINDS"},"data":[0,0,0,0,0,0,0,0,0,0,0,0,0,0,0,0,0,0,0,0,0,0,0,0,0,0,0,0,0,0,0,0,0,0,0,0,0,0,0,0,0,0,0,0,0,0,0,0,0,0,0,0,0,0,0,0,0,0,-0.4354,-0.4354,0,-0.4403,-0.4403,-0.4404,-0.4384,-0.4383,-0.4382,-0.4381,-0.4433,-0.4435,-0.4438,0,0,0,0,0,0,0,0,0,0,0,0,0,-0.4244,-0.4246,-0.4354,-0.4354,-0.4355,-0.4403,-0.4403,-0.4404,-0.4384,-0.4383,-0.4382,-0.438,-0.4432,-0.4435,-0.4438,0,0,0,0,0,0,0,0,0,0,0,0,0,-0.4292,-0.4247,-0.4354,-0.4351,-0.4351,-0.4402,-0.4403,-0.4404,-0.4385,-0.4383,-0.4381,-0.438,-0.4431,-0.4435,-0.4438,-0.4496,0,0,-0.445,-0.4451,0,0,0,0,0,0,0,0,-0.429,-0.4296,-0.4351,-0.4351,-0.4351,-0.4385,-0.4384,-0.4435,-0.4385,-0.4372,-0.4381,-0.4379,-0.4419,-0.4423,-0.4436,-0.4498,-0.4501,-0.445,-0.4452,-0.4454,-0.4455,0,0,0,0,0,0,0,-0.4286,-0.4294,-0.4373,-0.4351,-0.4352,-0.4347,-0.4352,-0.4393,-0.4405,-0.4373,-0.4372,-0.4378,-0.4419,-0.4433,-0.4437,-0.4501,-0.445,-0.4453,-0.4455,-0.4457,-0.4612,-0.4614,0,0,0,0,0,0,-0.4283,-0.4291,-0.4372,-0.4375,-0.4316,-0.4351,-0.4356,-0.4376,-0.4404,-0.4407,-0.4379,-0.4377,-0.4427,-0.4433,-0.4439,-0.4508,-0.4454,-0.4457,-0.4459,-0.461,-0.4612,-0.4614,0,0,0,0,0,0,-0.428,-0.429,-0.437,-0.4333,-0.4342,-0.4354,-0.4377,-0.4378,-0.4392,-0.4409,-0.4411,-0.4392,-0.4426,-0.4434,-0.4482,-0.451,-0.4459,-0.4462,-0.4608,-0.4611,-0.4613,-0.4646,0,0,0,0,0,0,-0.4277,-0.4289,-0.4311,-0.4333,-0.4344,-0.4411,-0.4379,-0.438,-0.4399,-0.4396,-0.4421,-0.4423,-0.4425,-0.4476,-0.4485,-0.4514,-0.4465,-0.4605,-0.4609,-0.4612,-0.4643,-0.465,-0.4656,0,0,0,0,0,-0.4273,-0.4319,-0.4313,-0.4322,-0.4372,-0.4413,-0.4419,-0.442,-0.4401,-0.4423,-0.4433,-0.4423,-0.4505,-0.4481,-0.4491,-0.4521,-0.4604,-0.4608,-0.4612,-0.464,-0.4649,-0.4656,0,0,0,0,0,0,-0.4302,-0.4322,-0.4315,-0.4369,-0.4389,-0.4409,-0.4438,-0.443,-0.4456,-0.4453,-0.4453,-0.4459,-0.4508,-0.4519,-0.4493,-0.4578,-0.4551,-0.4558,-0.4569,-0.4577,-0.4584,-0.4581,-0.4468,0,0,0,0,0,-0.4314,-0.4345,-0.4361,-0.4408,-0.4418,-0.4426,-0.4444,-0.4442,-0.4464,-0.4472,-0.4486,-0.4507,-0.4538,-0.4558,-0.4587,-0.4644,-0.4649,-0.4669,-0.4676,-0.4681,-0.4687,-0.4718,-0.4727,-0.4628,-0.4628,-0.4628,0,0,-0.434,-0.4355,-0.4375,-0.4414,-0.4429,-0.4461,-0.4433,-0.4469,-0.4493,-0.4478,-0.4524,-0.4534,-0.4558,-0.461,-0.4634,-0.4621,-0.4715,-0.4687,-0.4691,-0.4694,-0.4723,-0.4732,-0.474,-0.4631,-0.4631,-0.463,0,0,-0.4405,-0.4419,-0.4459,-0.4474,-0.4497,-0.4502,-0.4512,-0.4533,-0.4539,-0.4584,-0.4573,-0.4602,-0.4654,-0.4671,-0.4687,-0.4755,-0.4746,-0.4765,-0.48,-0.4829,-0.4837,-0.4844,-0.4869,-0.4877,-0.477,-0.4771,-0.4771,0,-0.4435,-0.4482,-0.4481,-0.4516,-0.4534,-0.452,-0.456,-0.4576,-0.4607,-0.462,-0.4604,-0.4669,-0.4684,-0.474,-0.4757,-0.477,-0.478,-0.4763,-0.4836,-0.4843,-0.4849,-0.4873,-0.4882,-0.4773,-0.4772,-0.4772,-0.4772,0,-0.4518,-0.4551,-0.458,-0.461,-0.4631,-0.4669,-0.4673,-0.4693,-0.469,-0.4696,-0.4742,-0.4759,-0.4791,-0.4804,-0.4801,-0.4859,-0.485,-0.4835,-0.4809,-0.4861,-0.4883,-0.4892,-0.4776,-0.4775,-0.4774,-0.4774,0,0,-0.4604,-0.463,-0.4641,-0.4654,-0.4678,-0.4703,-0.474,-0.477,-0.4788,-0.481,-0.4841,-0.4885,-0.4871,-0.4888,-0.4887,-0.4913,-0.4966,-0.4895,-0.4895,-0.4908,-0.503,-0.5041,-0.5052,-0.4959,-0.4961,-0.4962,-0.5028,0,-0.467,-0.4734,-0.4733,-0.4793,-0.4823,-0.481,-0.4842,-0.4859,-0.4866,-0.4892,-0.4899,-0.4931,-0.491,-0.492,-0.4945,-0.4954,-0.499,-0.4949,-0.4988,-0.499,-0.4984,-0.5063,-0.5076,-0.5137,-0.5037,-0.5038,-0.5039,0,-0.4757,-0.478,-0.4843,-0.486,-0.4873,-0.4902,-0.4929,-0.4954,-0.4974,-0.4977,-0.4995,-0.499,-0.5027,-0.4998,-0.5049,-0.5021,-0.5037,-0.5043,-0.5046,-0.505,-0.5018,-0.5071,-0.5157,-0.5167,-0.5053,-0.5052,-0.5051,0,-0.4813,-0.486,-0.4904,-0.4915,-0.4937,-0.4957,-0.4967,-0.4985,-0.5003,-0.5026,-0.5038,-0.5065,-0.5081,-0.5102,-0.5104,-0.5082,-0.5155,-0.5127,-0.5159,-0.5159,-0.5176,-0.5175,-0.5267,-0.5185,-0.5185,-0.5184,-0.5184,0,-0.4888,-0.4927,-0.4929,-0.4956,-0.4999,-0.4996,-0.5039,-0.5047,-0.5063,-0.5091,-0.508,-0.5107,-0.5107,-0.5134,-0.5136,-0.5178,-0.5185,-0.5188,-0.5188,-0.5189,-0.5189,-0.5201,-0.5197,-0.5187,-0.5186,-0.5186,-0.5185,0,-0.4959,-0.4962,-0.5008,-0.5024,-0.5029,-0.506,-0.5074,-0.5099,-0.5104,-0.5139,-0.5148,-0.5155,-0.5186,-0.5189,-0.5226,-0.5226,-0.5277,-0.5273,-0.5271,-0.527,-0.5302,-0.5299,-0.5405,-0.5419,-0.5327,-0.5328,-0.5329,0,-0.5007,-0.5037,-0.5055,-0.5073,-0.5084,-0.5113,-0.513,-0.5128,-0.5147,-0.517,-0.5193,-0.5223,-0.5247,-0.5297,-0.5306,-0.5333,-0.5329,-0.5364,-0.5334,-0.5334,-0.533,-0.5329,-0.5332,-0.5371,-0.5372,-0.5373,-0.5373,0,-0.5093,-0.5092,-0.5117,-0.5143,-0.5164,-0.5184,-0.5203,-0.5218,-0.5219,-0.524,-0.5271,-0.529,-0.5326,-0.5356,-0.5382,-0.5393,-0.5383,-0.5383,-0.5392,-0.5394,-0.5392,-0.5393,-0.5288,-0.5381,-0.538,-0.5379,-0.5379,-0.5379,-0.5154,-0.5179,-0.5196,-0.5224,-0.5238,-0.5255,-0.528,-0.5286,-0.5312,-0.5341,-0.5338,-0.5372,-0.539,-0.5424,-0.5437,-0.5463,-0.5452,-0.5465,-0.5468,-0.5472,-0.5475,-0.5386,-0.5468,-0.5468,-0.5468,-0.5468,-0.5467,0,-0.5239,-0.5248,-0.5274,-0.5301,-0.5323,-0.531,-0.533,-0.535,-0.538,-0.5396,-0.5419,-0.5455,-0.5483,-0.5493,-0.552,-0.554,-0.5536,-0.5547,-0.5546,-0.5549,-0.5484,-0.5473,-0.555,-0.555,-0.555,-0.555,-0.5549,-0.5549,-0.5286,-0.5328,-0.5329,-0.5377,-0.5386,-0.5419,-0.5431,-0.5447,-0.546,-0.55,-0.5523,-0.5529,-0.5543,-0.557,-0.5596,-0.5598,-0.5609,-0.5622,-0.5622,-0.5562,-0.5553,-0.5545,-0.5536,-0.5624,-0.5624,-0.5685,-0.5685,-0.5686]},{"header":{"parameterUnit":"m.s-1","parameterCategory":1,"la1":30.2991,"la2":30.254,"lo1":-89.0895,"lo2":-89.0444,"dy":0.0017,"dx":0.0017,"nx":28,"ny":28,"refTime":"2024-12-20T03:00:00:Z","depth":0,"parameterNumber":3,"parameterNumberName":"V-component_of_WINDS"},"data":[0,0,0,0,0,0,0,0,0,0,0,0,0,0,0,0,0,0,0,0,0,0,0,0,0,0,0,0,0,0,0,0,0,0,0,0,0,0,0,0,0,0,0,0,0,0,0,0,0,0,0,0,0,0,0,0,0,0,-5.6382,-5.6384,0,-5.651,-5.6511,-5.6512,-5.6439,-5.6435,-5.6432,-5.6428,-5.6555,-5.6561,-5.6568,0,0,0,0,0,0,0,0,0,0,0,0,0,-5.607,-5.6076,-5.6382,-5.6384,-5.6385,-5.6509,-5.6511,-5.6513,-5.644,-5.6435,-5.6431,-5.6427,-5.6552,-5.656,-5.6568,0,0,0,0,0,0,0,0,0,0,0,0,0,-5.6202,-5.6078,-5.6382,-5.6364,-5.6363,-5.6509,-5.6511,-5.6513,-5.644,-5.6435,-5.643,-5.6425,-5.655,-5.6559,-5.6569,-5.6738,0,0,-5.66,-5.6604,0,0,0,0,0,0,0,0,-5.6195,-5.6214,-5.6365,-5.6365,-5.6365,-5.6453,-5.6447,-5.6589,-5.6442,-5.6411,-5.6428,-5.6422,-5.6525,-5.6536,-5.6572,-5.6744,-5.675,-5.6601,-5.6607,-5.6611,-5.6614,0,0,0,0,0,0,0,-5.6186,-5.6208,-5.6432,-5.6367,-5.6367,-5.6348,-5.636,-5.6474,-5.6496,-5.6413,-5.6408,-5.6425,-5.6524,-5.6563,-5.6574,-5.6752,-5.6601,-5.6609,-5.6616,-5.662,-5.7067,-5.7073,0,0,0,0,0,0,-5.6179,-5.6201,-5.6428,-5.6436,-5.6265,-5.6358,-5.6372,-5.643,-5.6495,-5.65,-5.6429,-5.6421,-5.6548,-5.6563,-5.6579,-5.678,-5.6611,-5.6621,-5.6626,-5.7061,-5.7068,-5.7075,0,0,0,0,0,0,-5.6172,-5.62,-5.6423,-5.6317,-5.6344,-5.6369,-5.6435,-5.6435,-5.6474,-5.6507,-5.651,-5.6465,-5.6544,-5.6564,-5.6699,-5.6783,-5.6625,-5.6634,-5.7054,-5.7063,-5.7071,-5.7185,0,0,0,0,0,0,-5.6164,-5.6198,-5.6264,-5.6319,-5.635,-5.6544,-5.644,-5.6442,-5.6492,-5.6483,-5.6541,-5.6546,-5.6542,-5.6685,-5.6709,-5.6794,-5.6642,-5.7047,-5.7058,-5.7069,-5.7173,-5.7196,-5.7216,0,0,0,0,0,-5.6153,-5.629,-5.6267,-5.6295,-5.6433,-5.6549,-5.6566,-5.656,-5.6499,-5.6565,-5.6585,-5.6544,-5.677,-5.6699,-5.6726,-5.6815,-5.7041,-5.7055,-5.7068,-5.7164,-5.7192,-5.7215,0,0,0,0,0,0,-5.6242,-5.6297,-5.6273,-5.6432,-5.6486,-5.6536,-5.6619,-5.659,-5.6661,-5.6649,-5.6637,-5.665,-5.6791,-5.6816,-5.6736,-5.6981,-5.6896,-5.6915,-5.696,-5.6987,-5.7007,-5.6998,-5.665,0,0,0,0,0,-5.6281,-5.6371,-5.6413,-5.655,-5.6579,-5.6594,-5.6644,-5.6635,-5.669,-5.6712,-5.6743,-5.6796,-5.6879,-5.6934,-5.7012,-5.7177,-5.7187,-5.7251,-5.7272,-5.7289,-5.7306,-5.7393,-5.7422,-5.7118,-5.7118,-5.7118,0,0,-5.636,-5.6402,-5.6459,-5.6569,-5.661,-5.6702,-5.6614,-5.6716,-5.6784,-5.6727,-5.6856,-5.6881,-5.6939,-5.709,-5.7157,-5.7115,-5.7392,-5.7306,-5.732,-5.7327,-5.741,-5.7439,-5.7464,-5.7127,-5.7125,-5.7124,0,0,-5.6553,-5.6594,-5.6712,-5.6755,-5.6819,-5.6828,-5.6856,-5.6911,-5.6925,-5.7055,-5.7014,-5.7093,-5.7237,-5.7281,-5.7321,-5.753,-5.7494,-5.7556,-5.7666,-5.7751,-5.7775,-5.7796,-5.7869,-5.7896,-5.7572,-5.7573,-5.7573,0,-5.6644,-5.6784,-5.6776,-5.6881,-5.693,-5.6884,-5.7002,-5.7043,-5.7129,-5.7163,-5.7115,-5.7294,-5.733,-5.7489,-5.754,-5.7575,-5.7605,-5.7549,-5.7772,-5.7794,-5.7813,-5.7883,-5.7911,-5.758,-5.7579,-5.7578,-5.7577,0,-5.6892,-5.6989,-5.7077,-5.7162,-5.722,-5.7331,-5.7338,-5.7398,-5.7383,-5.7397,-5.7529,-5.7571,-5.7656,-5.7693,-5.7679,-5.785,-5.7822,-5.7774,-5.7688,-5.7849,-5.7915,-5.7941,-5.759,-5.7587,-5.7585,-5.7583,0,0,-5.7146,-5.7225,-5.7257,-5.7294,-5.7361,-5.7435,-5.7543,-5.7628,-5.7679,-5.7739,-5.7828,-5.795,-5.7906,-5.7952,-5.7942,-5.8018,-5.8179,-5.796,-5.7961,-5.7998,-5.8368,-5.8404,-5.8435,-5.8155,-5.816,-5.8164,-5.8363,0,-5.7342,-5.7533,-5.7529,-5.7705,-5.7794,-5.7751,-5.7845,-5.7895,-5.791,-5.7986,-5.8002,-5.8089,-5.8024,-5.8052,-5.8124,-5.8144,-5.8253,-5.8129,-5.8237,-5.8241,-5.8223,-5.8469,-5.8507,-5.8693,-5.8388,-5.8392,-5.8396,0,-5.7598,-5.7667,-5.7854,-5.7906,-5.7943,-5.8028,-5.8105,-5.8179,-5.8233,-5.8239,-5.8291,-5.8269,-5.8377,-5.8288,-5.8435,-5.8352,-5.8395,-5.8411,-5.8418,-5.8427,-5.8328,-5.8484,-5.8752,-5.8779,-5.8436,-5.8433,-5.843,0,-5.7763,-5.7903,-5.8032,-5.8066,-5.8131,-5.8191,-5.822,-5.827,-5.8321,-5.8387,-5.842,-5.8498,-5.854,-5.86,-5.8599,-5.8535,-5.8748,-5.8659,-5.8754,-5.8754,-5.8801,-5.8798,-5.9078,-5.883,-5.8829,-5.8829,-5.8828,0,-5.7983,-5.8098,-5.8107,-5.8187,-5.8314,-5.8307,-5.8432,-5.8455,-5.85,-5.8581,-5.8548,-5.8625,-5.862,-5.8697,-5.8697,-5.8818,-5.8837,-5.8844,-5.8842,-5.8847,-5.8846,-5.8875,-5.8861,-5.8836,-5.8835,-5.8833,-5.8832,0,-5.8189,-5.82,-5.8338,-5.8388,-5.8403,-5.8495,-5.8536,-5.8611,-5.8623,-5.8727,-5.8751,-5.8769,-5.8859,-5.8864,-5.8966,-5.8966,-5.9113,-5.9097,-5.9095,-5.9092,-5.9187,-5.9178,-5.9495,-5.9536,-5.9262,-5.9264,-5.9266,0,-5.8329,-5.8416,-5.8476,-5.8529,-5.8562,-5.8648,-5.87,-5.8696,-5.8751,-5.882,-5.8886,-5.8972,-5.9041,-5.9185,-5.9207,-5.9284,-5.927,-5.9376,-5.9281,-5.9283,-5.9271,-5.9265,-5.9273,-5.9394,-5.9397,-5.94,-5.9402,0,-5.8575,-5.8576,-5.8653,-5.8733,-5.8796,-5.8858,-5.8915,-5.896,-5.8962,-5.9025,-5.9117,-5.917,-5.9275,-5.9361,-5.9437,-5.9464,-5.9433,-5.9431,-5.9457,-5.9463,-5.9457,-5.9461,-5.9145,-5.9424,-5.9422,-5.942,-5.9419,-5.9418,-5.8751,-5.8827,-5.8881,-5.8968,-5.901,-5.9065,-5.9137,-5.9159,-5.9236,-5.9322,-5.9314,-5.9415,-5.9466,-5.9564,-5.9599,-5.9676,-5.964,-5.9678,-5.9687,-5.9697,-5.9706,-5.9446,-5.969,-5.9689,-5.9689,-5.9688,-5.9688,0,-5.8995,-5.9028,-5.9108,-5.919,-5.9257,-5.9223,-5.9285,-5.9343,-5.9433,-5.9484,-5.9553,-5.9657,-5.974,-5.9768,-5.9848,-5.9905,-5.9892,-5.9926,-5.9921,-5.9928,-5.9735,-5.9704,-5.9934,-5.9934,-5.9934,-5.9934,-5.9934,-5.9934,-5.913,-5.9256,-5.9263,-5.941,-5.944,-5.9541,-5.9579,-5.9628,-5.9668,-5.9787,-5.9856,-5.9874,-5.9915,-5.9998,-6.0071,-6.0077,-6.0108,-6.0147,-6.0147,-5.9966,-5.9941,-5.9918,-5.9889,-6.0154,-6.0154,-6.0333,-6.0335,-6.0336]}]]